Weather History for Carbondale, IL

Change the Weather History Date:

Thursday, April 18, 2013

  Actual Average Record
Temperature  
Mean Temperature 60 °F -  
Max Temperature 75 °F 70 °F 90 °F (1913)
Min Temperature 44 °F 45 °F 27 °F (1921)
Degree Days  
Heating Degree Days 6    
Growing Degree Days 10 (Base 50)    
Moisture  
Dew Point 55 °F    
Average Humidity 84    
Maximum Humidity 100    
Minimum Humidity 64    
Precipitation  
Precipitation 1.97 in - - ()
Sea Level Pressure  
Sea Level Pressure 29.70 in    
Wind  
Wind Speed 19 mph (WSW)    
Max Wind Speed 37 mph    
Max Gust Speed 46 mph    
Visibility 6 miles    
Events Rain , Thunderstorm    
Averages and records for this station are not official NWS values.
T = Trace of Precipitation, MM = Missing Value Source: NWS Daily Summary

Daily Weather History Graph

Daily Weather History Graph

Search for Another Location

Airport:

Trip Planner

Search our weather history database for the weather conditions in past years. The results will help you decide how hot, cold, wet, or windy it might be!

Date:

Astronomy

Apr. 18, 2013 Rise Set
Actual Time 6:17 AM CDT 7:35 PM CDT
Civil Twilight 5:50 AM CDT 8:03 PM CDT
Nautical Twilight 5:17 AM CDT 8:35 PM CDT
Astronomical Twilight 4:43 AM CDT 9:10 PM CDT
Moon 12:30 PM CDT (4/18) 1:49 AM CDT (4/18)
Length of Visible Light 14h 13m
Length of Day
13h 18m
First Quarter, 52% of the Moon is Illuminated
Apr 18
First Quarter
Apr 25
Full
May 2
Last Quarter
May 9
New
May 17
First Quarter

Hourly Weather History & Observations

Time (CDT) Temp. Windchill Dew Point Humidity Pressure Visibility Wind Dir Wind Speed Gust Speed Precip Events Conditions
12:52 AM 75.0 °F - 64.0 °F 69% 29.77 in 10.0 mi South 19.6 mph 29.9 mph N/A   Partly Cloudy
1:52 AM 75.0 °F - 64.0 °F 69% 29.74 in 10.0 mi South 19.6 mph 33.4 mph N/A   Clear
2:52 AM 75.9 °F - 64.0 °F 67% 29.70 in 10.0 mi South 24.2 mph 31.1 mph N/A   Scattered Clouds
3:52 AM 75.0 °F - 64.0 °F 69% 29.69 in 10.0 mi South 16.1 mph 38.0 mph N/A   Scattered Clouds
4:52 AM 75.0 °F - 64.0 °F 69% 29.69 in 10.0 mi SSW 32.2 mph 40.3 mph N/A   Partly Cloudy
5:52 AM 73.9 °F - 64.0 °F 71% 29.69 in 10.0 mi SSW 25.3 mph 36.8 mph N/A   Partly Cloudy
6:28 AM 73.4 °F - 64.4 °F 73% 29.69 in 10.0 mi South 25.3 mph 44.9 mph N/A   Mostly Cloudy
6:52 AM 73.9 °F - 64.0 °F 71% 29.69 in 10.0 mi SSW 36.8 mph 46.0 mph N/A   Mostly Cloudy
7:52 AM 73.9 °F - 64.0 °F 71% 29.69 in 10.0 mi South 28.8 mph 41.4 mph N/A   Overcast
8:02 AM 73.4 °F - 62.6 °F 69% 29.70 in 10.0 mi South 29.9 mph 41.4 mph N/A   Mostly Cloudy
8:52 AM 73.0 °F - 63.0 °F 71% 29.68 in 10.0 mi South 33.4 mph 43.7 mph N/A   Overcast
9:52 AM 73.9 °F - 62.1 °F 66% 29.69 in 10.0 mi South 28.8 mph 40.3 mph N/A   Overcast
11:52 AM 73.0 °F - 62.1 °F 68% 29.69 in 10.0 mi South 23.0 mph 35.7 mph N/A   Overcast
12:52 PM 75.0 °F - 62.1 °F 64% 29.66 in 10.0 mi South 18.4 mph 32.2 mph N/A   Overcast
1:52 PM 73.0 °F - 60.1 °F 64% 29.68 in 10.0 mi West 28.8 mph 36.8 mph 0.00 in   Overcast
1:57 PM 68.0 °F - 60.8 °F 78% 29.70 in 10.0 mi West 20.7 mph 36.8 mph 0.00 in Rain , Thunderstorm Light Thunderstorms and Rain
2:16 PM 64.4 °F - 60.8 °F 88% 29.69 in 1.0 mi WSW 10.4 mph 19.6 mph 0.15 in Rain Rain
2:26 PM 64.4 °F - 60.8 °F 88% 29.69 in 4.0 mi West 16.1 mph 23.0 mph 0.18 in Rain Light Rain
2:47 PM 64.4 °F - 60.8 °F 88% 29.68 in 10.0 mi WSW 17.3 mph 26.5 mph N/A Rain , Thunderstorm Light Thunderstorms and Rain
2:52 PM 64.9 °F - 61.0 °F 87% 29.68 in 10.0 mi WSW 19.6 mph 26.5 mph N/A Rain , Thunderstorm Light Thunderstorms and Rain
3:11 PM 64.4 °F - 60.8 °F 88% 29.68 in 4.0 mi SW 12.7 mph - 0.06 in Rain Rain
3:39 PM 64.4 °F - 60.8 °F 88% 29.67 in 3.0 mi WSW 13.8 mph - 0.14 in Rain , Thunderstorm Thunderstorms and Rain
3:41 PM 64.4 °F - 60.8 °F 88% 29.66 in 1.0 mi SW 11.5 mph 20.7 mph 0.21 in Rain , Thunderstorm Thunderstorms and Rain
3:47 PM 64.4 °F - 60.8 °F 88% 29.68 in 0.5 mi SW 12.7 mph 20.7 mph 0.31 in Rain , Thunderstorm Thunderstorms and Rain
3:52 PM 64.0 °F - 62.1 °F 93% 29.66 in 0.8 mi SSW 10.4 mph - 0.43 in Rain , Thunderstorm Heavy Thunderstorms and Rain
4:00 PM 62.6 °F - 62.6 °F 100% 29.66 in 2.0 mi South 6.9 mph - 0.05 in Rain , Thunderstorm Thunderstorms and Rain
4:20 PM 62.6 °F - 62.6 °F 100% 29.65 in 4.0 mi South 8.1 mph - 0.10 in Rain Rain
4:52 PM 64.0 °F - 62.1 °F 93% 29.62 in 3.0 mi SSE 12.7 mph - 0.15 in Rain Light Rain
5:01 PM 64.4 °F - 62.6 °F 94% 29.63 in 4.0 mi SSE 9.2 mph - 0.03 in Rain , Thunderstorm Rain
5:16 PM 64.4 °F - 62.6 °F 94% 29.63 in 5.0 mi South 9.2 mph - 0.06 in Rain Rain
5:47 PM 64.4 °F - 62.6 °F 94% 29.65 in 2.5 mi SSW 10.4 mph - 0.17 in Rain Rain
5:52 PM 64.0 °F - 62.1 °F 93% 29.65 in 2.5 mi South 12.7 mph - 0.20 in Rain Rain
6:01 PM 64.4 °F - 62.6 °F 94% 29.65 in 1.5 mi SSW 11.5 mph - 0.07 in Rain Heavy Rain
6:32 PM 57.2 °F - 55.4 °F 94% 29.66 in 2.0 mi NW 15.0 mph 31.1 mph 0.28 in Rain Rain
6:36 PM 57.2 °F - 55.4 °F 94% 29.68 in 2.5 mi NW 17.3 mph 23.0 mph 0.29 in Rain Rain
6:39 PM 55.4 °F - 53.6 °F 94% 29.68 in 3.0 mi NW 18.4 mph 24.2 mph 0.30 in Rain Rain
6:47 PM 53.6 °F - 50.0 °F 88% 29.70 in 2.5 mi NW 16.1 mph 28.8 mph 0.35 in Rain Rain
6:52 PM 52.0 °F - 50.0 °F 93% 29.70 in 2.5 mi NW 17.3 mph 28.8 mph 0.37 in Rain Heavy Rain
6:57 PM 51.8 °F - 48.2 °F 88% 29.70 in 3.0 mi NW 18.4 mph 26.5 mph 0.02 in Rain Rain
7:24 PM 50.0 °F - 48.2 °F 94% 29.68 in 5.0 mi NNW 8.1 mph 23.0 mph 0.13 in Rain Light Rain
7:30 PM 50.0 °F - 48.2 °F 94% 29.69 in 6.0 mi NW 10.4 mph 16.1 mph 0.15 in Rain Rain
7:52 PM 48.9 °F - 46.9 °F 93% 29.70 in 4.0 mi NW 15.0 mph 21.9 mph 0.26 in Rain Rain
8:14 PM 46.4 °F 39.5 °F 44.6 °F 93% 29.71 in 5.0 mi NW 17.3 mph 27.6 mph 0.07 in Rain Rain
8:23 PM 46.4 °F 39.2 °F 42.8 °F 87% 29.71 in 3.0 mi WNW 18.4 mph 28.8 mph 0.13 in Rain Heavy Rain
8:32 PM 46.4 °F 40.4 °F 42.8 °F 87% 29.74 in 2.5 mi WNW 13.8 mph 18.4 mph 0.21 in Rain Heavy Rain
8:40 PM 46.4 °F 40.7 °F 42.8 °F 87% 29.76 in 3.0 mi WNW 12.7 mph 20.7 mph 0.24 in Rain Rain
8:52 PM 46.0 °F 40.2 °F 43.0 °F 89% 29.77 in 4.0 mi West 12.7 mph 19.6 mph 0.29 in Rain Rain
9:00 PM 46.4 °F 41.5 °F 42.8 °F 87% 29.77 in 4.0 mi WNW 10.4 mph 19.6 mph 0.03 in Rain Heavy Rain
9:12 PM 46.4 °F 40.7 °F 42.8 °F 87% 29.74 in 4.0 mi NW 12.7 mph 19.6 mph 0.09 in Rain Heavy Rain
9:33 PM 44.6 °F 38.8 °F 42.8 °F 93% 29.74 in 4.0 mi WNW 11.5 mph - 0.18 in Rain Light Rain
9:45 PM 46.4 °F 42.9 °F 42.8 °F 87% 29.74 in 9.0 mi NW 6.9 mph 23.0 mph 0.19 in Rain Light Rain
9:52 PM 46.0 °F 41.0 °F 43.0 °F 89% 29.75 in 8.0 mi WNW 10.4 mph - 0.20 in Rain Light Rain
10:09 PM 44.6 °F 38.1 °F 42.8 °F 93% 29.75 in 4.0 mi WNW 13.8 mph 21.9 mph 0.04 in Rain Rain
10:16 PM 44.6 °F 39.2 °F 42.8 °F 93% 29.75 in 5.0 mi WNW 10.4 mph - 0.06 in Rain Rain
10:24 PM 44.6 °F 38.8 °F 41.0 °F 87% 29.72 in 10.0 mi NW 11.5 mph - 0.06 in Rain Light Rain
10:52 PM 45.0 °F 38.2 °F 39.9 °F 82% 29.76 in 10.0 mi WNW 15.0 mph 21.9 mph 0.07 in Rain Light Rain
11:52 PM 44.1 °F 36.8 °F 35.1 °F 71% 29.74 in 10.0 mi WNW 16.1 mph 31.1 mph 0.00 in   Overcast